Weather History for KELN - July, 2013

Change the Weather History Date:

Wednesday, July 17, 2013

  Actual Average (KYKM) Record (KYKM)
Temperature  
Mean Temperature 82 °F 71 °F  
Max Temperature 96 °F 89 °F 105 °F (1960)
Min Temperature 66 °F 54 °F 41 °F (1955)
Degree Days  
Heating Degree Days 0 1  
Month to date heating degree days 17  
Since 1 June heating degree days 115  
Since 1 July heating degree days 17  
Cooling Degree Days 16 7  
Month to date cooling degree days 92  
Year to date cooling degree days 177  
Since 1 June cooling degree days 157  
Growing Degree Days 32 (Base 50)    
Moisture  
Dew Point 50 °F    
Average Humidity 39    
Maximum Humidity 55    
Minimum Humidity 20    
Precipitation  
Precipitation 0.01 in 0.00 in 0.47 in (1999)
Month to date precipitation 0.14  
Year to date precipitation 4.43  
Snow  
Snow 0.00 in 0.00 in 0.00 in (2002)
Month to date snowfall 0.0  
Year to date snowfall 8.6  
Since 1 July snowfall 0.0  
Snow Depth -    
Sea Level Pressure  
Sea Level Pressure 29.95 in    
Wind  
Wind Speed 13 mph (NW)    
Max Wind Speed 25 mph    
Max Gust Speed 36 mph    
Visibility 10 miles    
Events Rain    
T = Trace of Precipitation, MM = Missing Value Source: NWS Daily Summary

Daily Weather History Graph

Daily Weather History Graph

Search for Another Location

Airport or City:

Trip Planner

Search our weather history database for the weather conditions in past years. The results will help you decide how hot, cold, wet, or windy it might be!

Date:

Astronomy

Jul. 17, 2013 Rise Set
Actual Time 5:24 AM PDT 8:51 PM PDT
Civil Twilight 4:46 AM PDT 9:29 PM PDT
Nautical Twilight 3:56 AM PDT 10:18 PM PDT
Astronomical Twilight 2:51 AM PDT 11:23 PM PDT
Moon 3:41 PM PDT (7/17) 12:42 AM PDT (7/17)
Length of Visible Light 16h 42m
Length of Day
15h 26m
Waxing Gibbous, 68% of the Moon is Illuminated
Jul 17
Waxing Gibbous
Jul 22
Full
Jul 29
Last Quarter
Aug 6
New
Aug 14
First Quarter

Hourly Weather History & Observations

Time (PDT) Temp. Heat Index Dew Point Humidity Pressure Visibility Wind Dir Wind Speed Gust Speed Precip Events Conditions
12:53 AM 72.0 °F - 48.0 °F 43% 29.84 in 10.0 mi NW 6.9 mph - N/A   Clear
1:53 AM 68.0 °F - 48.9 °F 50% 29.84 in 10.0 mi Calm Calm - N/A   Clear
2:30 AM 71.6 °F - 51.8 °F 50% 29.89 in 10.0 mi North 17.3 mph 29.9 mph 0.00 in Rain Light Rain
2:53 AM 75.0 °F - 50.0 °F 41% 29.84 in 10.0 mi North 19.6 mph - 0.00 in   Clear
3:53 AM 73.9 °F - 48.9 °F 41% 29.86 in 10.0 mi NW 12.7 mph 24.2 mph N/A   Clear
4:53 AM 71.1 °F - 51.1 °F 49% 29.88 in 10.0 mi NW 15.0 mph - 0.00 in   Scattered Clouds
5:53 AM 71.1 °F - 53.1 °F 53% 29.88 in 10.0 mi NW 13.8 mph - N/A   Mostly Cloudy
6:53 AM 71.1 °F - 54.0 °F 55% 29.91 in 10.0 mi NW 16.1 mph - 0.01 in   Partly Cloudy
7:53 AM 75.0 °F - 55.0 °F 50% 29.94 in 10.0 mi NW 20.7 mph 28.8 mph N/A   Mostly Cloudy
8:53 AM 75.0 °F - 55.0 °F 50% 29.95 in 10.0 mi WNW 16.1 mph 23.0 mph 0.00 in   Partly Cloudy
9:53 AM 80.1 °F 80.1 °F 55.0 °F 42% 29.96 in 10.0 mi WNW 20.7 mph 27.6 mph N/A   Clear
10:53 AM 82.9 °F 81.9 °F 54.0 °F 37% 29.97 in 10.0 mi NW 19.6 mph 27.6 mph N/A   Clear
11:53 AM 88.0 °F 85.7 °F 53.1 °F 30% 29.98 in 10.0 mi NW 11.5 mph - N/A   Clear
12:53 PM 91.0 °F - 51.1 °F 25% 29.98 in 10.0 mi West 9.2 mph - N/A   Clear
1:53 PM 93.0 °F - 46.9 °F 20% 29.98 in 10.0 mi NNW 3.5 mph - N/A   Clear
2:53 PM 93.9 °F - 48.0 °F 21% 29.96 in 10.0 mi NW 5.8 mph - N/A   Clear
3:53 PM 95.0 °F - 48.9 °F 21% 29.96 in 10.0 mi NW 6.9 mph - N/A   Clear
4:53 PM 93.0 °F - 52.0 °F 25% 29.95 in 10.0 mi WNW 16.1 mph 23.0 mph N/A   Partly Cloudy
5:53 PM 86.0 °F - 50.0 °F 29% 29.96 in 10.0 mi NW 21.9 mph 26.5 mph N/A   Clear
6:53 PM 82.9 °F - 48.0 °F 29% 29.98 in 10.0 mi NW 25.3 mph 35.7 mph N/A   Clear
7:53 PM 78.1 °F - 46.9 °F 33% 29.99 in 10.0 mi NW 25.3 mph 33.4 mph N/A   Clear
8:53 PM 73.9 °F - 48.0 °F 40% 30.01 in 10.0 mi NNW 19.6 mph 25.3 mph N/A   Clear
9:53 PM 71.1 °F - 48.9 °F 45% 30.04 in 10.0 mi NW 19.6 mph 31.1 mph N/A   Clear
10:53 PM 69.1 °F - 48.9 °F 49% 30.04 in 10.0 mi NW 21.9 mph 28.8 mph N/A   Clear
11:53 PM 66.9 °F - 46.9 °F 49% 30.04 in 10.0 mi NW 20.7 mph 28.8 mph N/A   Clear